Location: Unspecified
(0.0000°N, 0.0000°E)
Time: 09:21:33
(UTC+00:00)

ATLAS 5 CENTAUR DEB - Pass Details

Date: 12 December 2025
Orbit: 8829 x 35105 km, 13.2° (Epoch: 17 January)

Event Time Altitude Azimuth Distance (km) Brightness Sun altitude
Rises 00:59:23 0° 264° (W) 16,297 ? -61.9°
Reaches altitude 10° 01:10:52 10° 266° (W) 16,466 ? -60.2°
Maximum altitude 04:10:40 57° 297° (WNW) 30,826 ? -23.6°
Drops below altitude 10° 13:32:46 10° 105° (ESE) 12,768 ? 56.7°
Sets 13:41:53 0° 103° (ESE) 14,091 ? 55.0°
